Location: Kampong Paya Jaras Dalam
(3.1833°N, 101.5500°E)
Time: 05:58:30
(UTC+00:00)

Meteor 1-24 Rocket - Pass Details

Date: 15 May 2026
Orbit: 790 x 925 km, 81.3° (Epoch: 7 June)

Event Time Altitude Azimuth Distance (km) Brightness Sun altitude
Exits shadow 21:26:34 43° 297° (WNW) 1,111 4.0 -23.2°
Drops below altitude 10° 21:31:03 10° 348° (NNW) 2,399 6.2 -22.2°
Sets 21:33:34 0° 354° (N) 3,348 7.0 -21.6°
